Wind_Speed
24 24 24 23 22 22 22 23 23 22 21 20 18 17 18 17 17 17 17 17 17 17 16 15 15 15 15 16 15 14 15 16 17 17 17 17 17 17 18 18 18 19 20 20
26 26 26 25 22 21 23 24 24 23 22 21 20 19 18 18 18 18 18 18 18 18 17 16 16 16 16 16 17 17 17 17 17 18 19 19 19 19 19 19 19 20 21 21
28 28 27 27 24 24 24 25 24 24 23 22 21 20 21 20 20 20 19 19 19 19 19 19 19 18 17 18 20 20 19 18 19 19 20 20 20 20 20 20 21 22 23 22
30 29 29 28 27 26 26 26 26 25 23 23 22 23 23 22 21 21 21 21 21 22 21 21 21 20 19 20 20 20 19 19 19 20 20 21 22 22 22 22 22 23 23 22
30 29 29 28 27 26 26 27 27 27 25 24 25 25 25 24 23 23 23 24 24 24 23 23 23 21 20 21 21 20 20 20 21 22 22 23 24 24 24 24 24 25 24 24
31 31 31 29 27 26 27 28 27 27 26 26 27 27 27 26 26 26 26 25 26 26 25 25 24 23 22 22 22 22 22 23 23 24 24 25 25 25 25 26 27 27 26 27
31 32 32 30 29 28 29 29 28 27 27 26 28 28 28 29 29 29 28 27 27 27 26 26 26 25 25 23 23 24 25 25 25 25 25 26 26 26 27 27 28 27 27 28
32 33 32 30 30 30 30 29 29 29 28 28 29 29 29 30 30 30 30 29 28 28 28 28 28 27 26 26 26 26 27 27 27 27 27 27 28 28 28 28 29 29 29 29
35 34 33 32 32 32 32 32 32 31 30 30 29 29 30 31 31 31 31 31 30 30 30 30 30 29 29 29 29 28 28 28 28 28 28 28 29 29 30 30 30 30 30 30
33 33 33 32 33 33 34 33 33 32 31 31 31 31 31 31 32 33 33 34 33 32 32 32 32 32 31 31 30 31 30 30 30 30 30 30 30 31 31 31 31 30 30 31
34 33 33 32 33 33 34 35 34 34 34 33 33 33 33 33 32 32 33 33 33 33 33 33 33 33 33 32 32 32 32 31 31 31 31 31 31 31 31 32 31 31 31 31
33 33 34 34 34 33 33 33 33 33 34 34 34 35 34 32 31 32 33 33 33 33 33 33 33 33 33 33 33 32 32 31 31 32 32 32 32 32 32 32 32 31 31 32
33 34 34 34 34 35 35 34 34 34 33 33 35 35 33 32 32 32 33 34 34 34 33 32 32 32 32 31 32 32 32 32 32 32 32 33 33 33 33 32 31 31 32 32
33 33 34 33 33 35 36 36 36 36 35 34 35 34 34 33 32 32 32 33 33 33 33 32 31 31 31 31 32 32 33 33 33 33 33 33 33 33 32 31 31 31 31 32
32 32 33 34 34 35 36 36 36 35 36 36 36 35 35 34 33 33 32 33 33 33 33 32 31 31 31 31 31 31 31 32 33 33 33 33 32 32 31 30 30 31 31 31
31 31 32 33 34 34 35 35 35 35 35 36 36 36 36 35 34 33 33 32 32 32 32 32 31 31 30 31 32 32 31 31 32 32 32 32 32 31 31 31 31 31 30 30
31 31 32 33 34 34 35 34 34 34 35 36 35 35 34 34 34 33 32 31 31 30 30 30 31 31 31 31 31 31 31 31 31 31 31 31 30 30 30 31 31 30 30 30
31 31 33 33 33 33 33 33 33 33 34 34 34 33 32 32 32 31 31 31 30 30 30 30 30 30 30 30 30 30 30 30 30 30 30 30 30 30 31 30 30 30 30 30
28 29 31 31 31 31 31 31 32 33 32 31 31 31 30 30 30 30 30 30 30 30 30 30 30 30 30 30 29 29 28 28 29 29 29 29 30 30 29 28 29 29 29 29
28 29 29 30 30 30 30 30 30 30 29 30 30 29 29 29 29 29 29 30 30 29 30 30 30 30 28 27 27 27 27 27 28 28 28 28 29 29 28 28 28 29 29 29
27 27 27 28 29 28 28 28 28 28 28 28 28 29 29 28 28 29 29 29 29 29 29 28 28 28 27 26 25 25 25 26 27 27 27 28 28 28 28 29 28 29 28 28
25 25 26 26 26 26 26 26 26 26 26 26 27 27 27 28 29 29 29 29 29 29 29 28 27 27 26 25 24 25 25 26 26 26 26 27 28 28 28 27 28 28 27 27
24 23 24 23 24 24 24 24 24 25 26 26 27 27 27 27 27 27 27 27 27 27 27 27 26 26 26 26 25 25 25 25 25 25 25 26 26 26 26 26 26 26 26 27
21 22 21 21 21 20 20 21 21 22 24 25 25 26 26 27 27 26 26 26 25 25 26 26 25 25 25 25 24 24 24 24 23 23 23 23 23 24 24 25 25 25 26 27
19 18 18 19 19 19 19 20 20 21 21 22 22 22 23 24 25 26 25 25 25 25 25 25 24 24 24 23 23 23 23 22 22 21 22 22 23 24 24 24 24 25 26 27
16 17 17 16 16 16 17 17 18 18 19 19 20 21 22 22 22 22 21 21 22 22 22 22 21 22 22 22 22 22 22 22 21 22 22 22 23 24 24 24 25 26 26 27
14 14 15 15 15 15 15 15 16 17 17 18 18 19 19 19 19 19 19 19 20 20 20 21 21 22 22 22 22 22 22 22 22 22 23 24 24 24 24 24 25 25 25 26
Wind_Direction
237 235 237 239 242 247 249 250 255 257 260 260 264 266 269 267 271 277 283 289 292 295 292 292 295 295 295 297 296 293 293 296 299 301 303 304 304 302 301 299 298 301 303 303
236 237 239 240 241 245 250 253 257 259 260 260 261 262 267 269 274 279 282 287 291 289 290 289 292 294 294 293 293 295 296 295 297 300 301 300 300 301 301 299 298 299 300 300
239 239 242 242 241 243 247 250 255 258 262 262 262 264 265 269 274 277 282 284 285 285 287 289 291 291 287 291 291 293 294 294 296 298 300 300 299 298 299 299 300 300 301 300
245 241 242 246 245 245 247 249 252 257 259 262 263 267 268 269 273 275 278 280 282 282 282 285 288 288 290 291 292 291 291 293 295 297 298 298 299 300 299 297 298 300 300 300
247 245 244 245 248 248 248 249 250 254 258 262 264 267 269 268 272 275 278 280 281 282 282 283 284 284 286 290 289 288 289 291 293 295 296 297 298 297 297 297 298 300 304 302
248 247 247 246 246 247 249 249 251 254 258 262 265 266 267 269 272 273 277 279 282 282 281 280 282 282 283 284 286 286 288 289 290 293 294 296 297 297 297 298 299 301 301 302
247 247 249 249 245 247 249 251 252 256 259 263 265 266 268 271 272 274 276 277 279 281 283 281 281 281 281 281 284 284 285 286 288 291 294 295 297 297 298 298 299 300 300 300
247 247 249 251 251 249 252 253 253 256 259 261 264 266 268 271 272 272 275 278 280 281 283 281 279 279 278 280 282 282 281 283 286 289 292 294 296 296 296 297 297 297 298 298
248 249 250 251 252 252 254 255 255 256 258 260 262 266 269 271 272 273 274 276 277 279 281 279 277 277 278 279 280 281 280 281 284 287 289 291 292 294 295 296 296 296 297 297
251 250 250 251 253 254 255 254 255 257 258 262 266 267 269 272 274 274 275 276 277 277 278 277 276 276 277 278 279 280 280 281 284 286 288 289 290 291 292 293 294 295 295 296
253 253 253 254 257 258 258 256 256 257 260 262 265 267 270 272 273 273 275 277 277 276 275 274 274 274 275 276 276 278 279 280 281 284 286 286 287 288 290 291 291 292 294 295
254 254 255 257 257 259 260 260 261 261 263 264 266 270 272 274 275 274 273 275 276 274 273 272 272 273 274 273 274 276 278 279 280 282 284 285 286 287 289 290 289 291 293 295
255 255 256 257 259 260 261 262 263 264 266 267 269 270 272 273 274 275 274 274 274 273 273 272 272 272 272 272 274 275 275 277 278 280 282 284 286 287 288 289 289 291 294 296
256 256 256 257 260 261 262 262 263 265 268 270 271 272 272 273 273 274 275 275 273 274 274 271 270 271 272 273 274 274 275 276 278 280 282 284 286 287 288 288 290 292 294 295
255 256 257 258 260 261 260 261 262 265 267 269 271 271 272 273 274 274 274 275 273 272 272 271 271 271 272 273 274 275 276 276 278 279 281 282 285 286 287 288 289 291 293 294
258 259 260 259 260 260 260 261 262 263 265 268 269 270 271 272 273 273 273 274 273 270 269 269 270 270 272 272 273 274 276 277 277 278 280 281 283 284 286 288 289 290 292 294
259 260 260 262 260 261 262 262 263 264 264 265 267 269 269 270 271 272 272 271 270 270 270 270 270 271 271 273 274 275 277 278 278 278 281 282 283 284 285 287 288 289 290 293
259 260 260 263 262 263 263 263 265 266 266 265 266 268 269 270 270 270 271 271 269 268 269 270 272 273 274 275 275 275 276 277 278 279 280 282 282 284 285 286 286 289 291 292
260 260 262 264 264 264 265 266 266 267 266 266 265 266 268 270 271 271 271 271 270 269 270 272 272 273 274 275 275 274 275 276 278 279 280 281 282 284 285 287 287 288 292 292
264 264 264 265 266 266 266 267 267 267 267 265 265 266 268 269 270 270 271 271 271 271 272 272 272 273 274 276 276 276 275 276 277 279 280 280 282 284 285 287 288 289 289 292
266 267 267 266 267 269 267 267 267 268 267 266 266 267 267 266 268 269 270 271 271 272 274 274 273 272 272 274 275 276 276 278 280 281 281 281 282 284 286 288 289 291 290 290
265 266 269 270 270 269 267 267 268 268 268 268 267 267 266 266 267 268 269 271 271 272 273 273 273 273 273 275 276 277 278 280 282 281 280 281 283 285 287 289 290 290 290 291
269 269 271 271 272 271 269 269 268 268 268 268 267 266 265 266 267 267 268 270 271 271 271 271 272 272 272 274 275 276 278 280 282 282 283 285 287 287 288 289 290 289 290 292
271 271 271 271 272 273 273 273 273 272 272 271 269 267 266 266 267 268 269 270 270 271 272 272 271 271 272 273 275 276 277 278 280 283 286 287 289 291 291 292 292 292 293 294
268 268 268 270 272 275 276 276 277 277 274 272 269 268 268 270 270 270 272 271 270 272 271 271 270 269 270 271 272 274 277 279 280 284 286 288 291 293 293 294 294 296 296 297
270 269 270 273 274 276 278 280 278 275 273 272 271 270 270 271 271 271 272 271 269 270 270 268 268 268 269 271 273 274 276 278 279 282 285 288 289 289 290 292 295 296 297 298
273 274 273 273 274 277 281 283 283 280 278 277 274 271 269 269 270 272 273 272 271 269 267 267 268 269 269 271 273 275 276 278 279 281 284 286 288 291 292 293 296 297 298 299
Height
5880 5882 5883 5884 5886 5886 5887 5887 5888 5889 5889 5890 5891 5891 5891 5891 5891 5891 5891 5890 5889 5889 5888 5887 5886 5886 5885 5884 5882 5881 5880 5878 5877 5875 5873 5871 5869 5867 5865 5864 5862 5860 5857 5855
5875 5876 5878 5879 5881 5881 5881 5882 5883 5884 5885 5885 5885 5886 5886 5886 5886 5886 5885 5885 5885 5884 5883 5883 5882 5881 5880 5879 5878 5877 5875 5873 5872 5870 5868 5866 5864 5862 5860 5858 5856 5854 5851 5849
5868 5870 5872 5874 5875 5876 5876 5877 5878 5878 5880 5880 5881 5881 5881 5882 5881 5881 5880 5880 5880 5879 5878 5878 5877 5876 5875 5873 5872 5871 5870 5868 5866 5865 5863 5861 5858 5856 5855 5853 5850 5848 5845 5843
5861 5864 5865 5869 5868 5869 5870 5871 5872 5873 5874 5875 5875 5875 5876 5876 5876 5876 5875 5875 5874 5873 5872 5872 5871 5870 5869 5868 5866 5865 5864 5862 5861 5859 5858 5855 5852 5850 5848 5846 5844 5842 5839 5836
5853 5856 5858 5860 5861 5862 5863 5864 5866 5867 5868 5869 5869 5869 5869 5869 5870 5870 5869 5868 5867 5866 5866 5865 5864 5864 5863 5862 5860 5859 5858 5856 5855 5853 5851 5849 5847 5844 5842 5840 5838 5835 5832 5830
5846 5848 5850 5854 5855 5855 5858 5857 5859 5860 5861 5862 5862 5863 5863 5863 5863 5863 5863 5862 5861 5859 5858 5858 5858 5857 5856 5855 5854 5853 5852 5850 5848 5847 5845 5843 5840 5838 5835 5833 5830 5828 5826 5823
5838 5839 5842 5845 5847 5849 5851 5852 5852 5853 5853 5854 5855 5856 5857 5856 5856 5856 5855 5854 5853 5852 5851 5851 5850 5850 5849 5848 5847 5846 5845 5843 5841 5840 5838 5836 5833 5831 5828 5826 5823 5821 5818 5816
5830 5832 5836 5837 5839 5841 5842 5843 5844 5845 5846 5846 5847 5848 5848 5848 5848 5847 5846 5845 5845 5844 5843 5842 5842 5841 5840 5839 5839 5838 5837 5835 5834 5832 5830 5828 5826 5823 5820 5818 5816 5813 5811 5808
5822 5825 5827 5829 5831 5832 5833 5834 5835 5836 5837 5838 5838 5839 5839 5839 5839 5838 5838 5837 5837 5836 5835 5834 5833 5833 5832 5831 5831 5829 5828 5827 5826 5824 5822 5820 5818 5816 5813 5810 5808 5806 5803 5800
5812 5814 5817 5819 5821 5822 5824 5825 5826 5828 5829 5829 5830 5830 5830 5830 5830 5829 5828 5828 5828 5827 5826 5826 5825 5824 5823 5822 5821 5820 5820 5819 5817 5815 5814 5812 5809 5807 5805 5802 5800 5797 5795 5792
5804 5806 5808 5809 5811 5813 5815 5816 5817 5818 5820 5821 5821 5821 5820 5820 5820 5819 5819 5818 5818 5817 5816 5816 5815 5815 5814 5813 5812 5811 5810 5809 5808 5806 5804 5803 5800 5798 5796 5794 5791 5789 5786 5784
5796 5798 5799 5801 5802 5804 5805 5806 5807 5808 5809 5810 5810 5810 5810 5810 5810 5810 5809 5808 5807 5806 5806 5806 5805 5804 5804 5803 5802 5802 5801 5800 5798 5797 5795 5793 5791 5789 5787 5785 5782 5780 5777 5775
5787 5788 5790 5792 5793 5794 5795 5796 5797 5797 5798 5799 5800 5800 5799 5800 5800 5799 5798 5798 5797 5796 5795 5795 5795 5794 5794 5793 5793 5792 5791 5790 5789 5787 5786 5784 5781 5779 5778 5776 5773 5771 5769 5766
5777 5779 5781 5783 5784 5785 5786 5786 5787 5787 5788 5788 5789 5789 5789 5789 5788 5788 5787 5786 5786 5785 5784 5784 5785 5784 5784 5783 5782 5781 5781 5780 5779 5777 5776 5774 5772 5770 5768 5766 5764 5762 5760 5757
5769 5770 5772 5773 5774 5776 5776 5777 5777 5778 5778 5778 5778 5778 5778 5777 5777 5777 5776 5776 5775 5775 5774 5774 5774 5774 5774 5773 5772 5771 5770 5770 5769 5767 5766 5764 5763 5761 5759 5757 5755 5753 5750 5748
5760 5761 5762 5764 5765 5765 5766 5766 5767 5767 5768 5768 5768 5767 5767 5767 5766 5766 5766 5765 5765 5764 5764 5764 5764 5764 5763 5763 5762 5761 5761 5760 5758 5757 5756 5755 5753 5752 5750 5747 5745 5743 5741 5739
5751 5752 5753 5754 5755 5755 5755 5756 5756 5756 5757 5757 5757 5757 5756 5756 5756 5756 5755 5755 5755 5755 5754 5754 5754 5754 5753 5753 5752 5752 5751 5750 5748 5747 5747 5746 5744 5743 5741 5738 5736 5733 5732 5729
5742 5743 5744 5744 5745 5745 5746 5746 5746 5746 5747 5747 5747 5746 5746 5746 5746 5746 5745 5745 5745 5745 5745 5744 5744 5744 5743 5743 5742 5741 5741 5740 5739 5738 5738 5737 5735 5733 5731 5729 5727 5725 5723 5720
5733 5734 5734 5734 5735 5735 5736 5736 5736 5737 5736 5736 5737 5737 5736 5736 5736 5736 5736 5735 5735 5736 5735 5735 5734 5733 5733 5732 5731 5731 5731 5730 5730 5729 5728 5727 5726 5724 5722 5720 5719 5717 5715 5713
5725 5725 5725 5725 5725 5725 5726 5727 5727 5727 5727 5726 5727 5727 5727 5727 5727 5726 5726 5726 5726 5726 5726 5725 5725 5724 5723 5723 5722 5721 5721 5721 5721 5720 5719 5718 5716 5715 5713 5712 5710 5708 5706 5704
5716 5716 5716 5716 5716 5715 5716 5717 5717 5717 5717 5717 5717 5717 5717 5718 5718 5717 5717 5717 5717 5716 5716 5716 5716 5715 5715 5714 5714 5713 5713 5712 5712 5711 5710 5709 5708 5706 5705 5703 5701 5699 5697 5695
5708 5707 5707 5707 5707 5707 5708 5707 5707 5708 5707 5707 5708 5708 5708 5708 5708 5708 5708 5708 5708 5707 5707 5707 5707 5707 5706 5706 5705 5705 5704 5704 5703 5702 5701 5700 5699 5698 5697 5695 5693 5691 5689 5687
5699 5699 5699 5699 5699 5699 5699 5698 5698 5698 5699 5699 5699 5699 5699 5699 5699 5699 5699 5699 5698 5698 5698 5698 5698 5698 5698 5698 5697 5697 5696 5695 5695 5694 5693 5692 5691 5690 5688 5686 5685 5683 5680 5678
5692 5691 5691 5691 5691 5691 5691 5691 5690 5690 5690 5691 5690 5690 5690 5690 5690 5690 5690 5690 5689 5689 5689 5689 5689 5689 5689 5689 5689 5689 5689 5688 5687 5687 5686 5684 5683 5682 5680 5678 5676 5675 5672 5670
5685 5685 5685 5685 5685 5685 5685 5684 5684 5684 5683 5683 5682 5682 5682 5682 5682 5682 5682 5681 5681 5681 5681 5681 5681 5681 5682 5682 5682 5682 5682 5681 5680 5680 5679 5678 5676 5675 5673 5671 5669 5667 5665 5662
5680 5680 5680 5679 5679 5679 5679 5678 5678 5677 5676 5676 5675 5675 5674 5674 5674 5674 5674 5673 5673 5673 5673 5673 5674 5674 5674 5675 5675 5675 5675 5674 5674 5673 5672 5670 5669 5668 5666 5664 5662 5659 5656 5653
5675 5675 5675 5674 5674 5673 5673 5673 5672 5671 5670 5669 5669 5668 5668 5667 5667 5667 5666 5666 5666 5666 5666 5666 5667 5667 5668 5668 5668 5668 5668 5667 5666 5665 5664 5663 5661 5660 5658 5656 5654 5651 5648 5645